Date String (YYYY-MM-DD hh:mm:ss) UTC,Instrument flags,absolute air pressure of the measurement (hPa),sample flow rate (lpm),inlet stack bypass flow (lpm),air temperature of the measurement (°C),ambient temperature measured by the external sensor (°C),aerosol sample conditioner tube jacket temperature (°C),OPC LED temperature (°C),internal box temperature (°C),relative humidity of the measurement (%),span deviation,mass concentration of particles derived from Lorenz-Mie calculation of OPC scattering (μg/m³),mass concentration of particles derived from Lorenz-Mie calculation of OPC scattering (μg/m³),mass concentration of particles derived from Lorenz-Mie calculation of OPC scattering (μg/m³)
DateTimeUTC,F1_M11,P_M11,Q1_M11,Q2_M11,T1_M11,T2_M11,T3_M11,T4_M11,T5_M11,U1_M11,ZSPAN_M11,X0_M11,X2_M11,X1_M11
2024-02-28 05:00:00,SystemResetWarning,0825.7,5.01,000.00,018.4,017.5,000.0,027.2,020.0,05.6,0000.0,0003.25,0000.81,0000.33
2024-02-28 05:01:00,SystemResetWarning,0825.7,5.01,000.00,018.5,018.1,000.0,027.3,020.4,05.5,0000.0,0003.16,0000.78,0000.33
2024-02-28 05:02:00,SystemResetWarning,0825.8,5.00,000.00,018.8,019.0,000.0,027.3,021.0,05.5,0000.0,0003.27,0000.78,0000.33
2024-02-28 05:03:00,SystemResetWarning,0825.8,5.00,000.00,019.0,019.4,000.0,027.3,021.2,05.4,0000.0,0004.78,0000.81,0000.34
2024-02-28 05:04:00,SystemResetWarning,0825.8,5.00,000.00,019.0,019.2,000.0,027.3,021.0,05.4,0000.0,0004.85,0000.79,0000.34
2024-02-28 05:05:00,SystemResetWarning,0825.8,4.99,000.00,018.9,018.8,000.0,027.2,020.7,05.5,0000.0,0004.99,0000.77,0000.34
2024-02-28 05:06:00,SystemResetWarning,0825.9,5.00,000.00,018.8,018.5,000.0,027.2,020.4,05.5,0000.0,0004.35,0000.79,0000.33
2024-02-28 05:07:00,SystemResetWarning,0825.9,5.00,000.00,018.7,018.2,000.0,027.1,020.2,05.5,0000.0,0004.24,0000.79,0000.32
2024-02-28 05:08:00,SystemResetWarning,0825.9,5.00,000.00,018.6,018.0,000.0,027.1,020.0,05.6,0000.0,0003.62,0000.78,0000.33
2024-02-28 05:09:00,SystemResetWarning,0825.9,4.99,000.00,018.5,017.8,000.0,027.2,020.0,05.7,0000.0,0003.54,0000.78,0000.33
2024-02-28 05:10:00,SystemResetWarning,0825.9,5.00,000.00,018.5,017.7,000.0,027.2,020.0,05.8,0000.0,0003.57,0000.77,0000.34
2024-02-28 05:11:00,SystemResetWarning,0825.9,5.01,000.00,018.5,017.6,000.0,027.2,020.0,05.6,0000.0,0003.61,0000.79,0000.34
2024-02-28 05:12:00,SystemResetWarning,0825.9,5.00,000.00,018.4,017.5,000.0,027.2,020.0,05.5,0000.0,0003.85,0000.82,0000.34
2024-02-28 05:13:00,SystemResetWarning,0825.9,5.01,000.00,018.5,018.0,000.0,027.3,020.3,05.5,0000.0,0004.13,0000.80,0000.34
2024-02-28 05:14:00,SystemResetWarning,0826.0,4.99,000.00,018.7,018.8,000.0,027.3,020.8,05.4,0000.0,0003.62,0000.76,0000.34
2024-02-28 05:15:00,SystemResetWarning,0825.9,4.99,000.00,018.9,019.4,000.0,027.4,021.2,05.4,0000.0,0003.41,0000.78,0000.34
2024-02-28 05:16:00,SystemResetWarning,0825.9,5.00,000.00,019.0,019.2,000.0,027.3,021.0,05.3,0000.0,0003.20,0000.75,0000.34
2024-02-28 05:17:00,SystemResetWarning,0825.9,5.01,000.00,018.9,019.0,000.0,027.3,020.8,05.4,0000.0,0003.08,0000.72,0000.34
2024-02-28 05:18:00,SystemResetWarning,0825.8,5.00,000.00,018.9,018.7,000.0,027.2,020.6,05.4,0000.0,0003.19,0000.76,0000.35
2024-02-28 05:19:00,SystemResetWarning,0825.8,5.00,000.00,018.8,018.5,000.0,027.2,020.5,05.4,0000.0,0003.22,0000.74,0000.35
2024-02-28 05:20:00,SystemResetWarning,0825.8,5.00,000.00,018.8,018.3,000.0,027.2,020.4,05.4,0000.0,0003.23,0000.74,0000.36
2024-02-28 05:21:00,SystemResetWarning,0825.9,4.99,000.00,018.7,018.1,000.0,027.1,020.2,05.4,0000.0,0003.19,0000.75,0000.35
2024-02-28 05:22:00,SystemResetWarning,0825.9,5.00,000.00,018.6,018.0,000.0,027.1,020.1,05.6,0000.0,0004.13,0000.74,0000.35
2024-02-28 05:23:00,SystemResetWarning,0825.8,5.00,000.00,018.6,017.8,000.0,027.1,020.0,05.8,0000.0,0004.37,0000.74,0000.36
2024-02-28 05:24:00,SystemResetWarning,0825.8,5.00,000.00,018.5,017.7,000.0,027.1,020.0,05.8,0000.0,0004.45,0000.73,0000.36
2024-02-28 05:25:00,SystemResetWarning,0825.8,5.01,000.00,018.5,017.6,000.0,027.2,020.0,05.9,0000.0,0005.30,0000.74,0000.36
2024-02-28 05:26:00,SystemResetWarning,0825.8,5.01,000.00,018.4,017.6,000.0,027.1,020.0,06.0,0000.0,0005.29,0000.71,0000.35
2024-02-28 05:27:00,SystemResetWarning,0825.8,5.01,000.00,018.4,017.6,000.0,027.1,020.0,06.0,0000.0,0005.31,0000.73,0000.36
2024-02-28 05:28:00,SystemResetWarning,0825.9,4.99,000.00,018.4,017.5,000.0,027.1,020.0,06.0,0000.0,0005.33,0000.73,0000.37
2024-02-28 05:29:00,SystemResetWarning,0825.9,5.00,000.00,018.3,017.5,000.0,027.1,020.0,06.0,0000.0,0005.31,0000.71,0000.36
2024-02-28 05:30:00,SystemResetWarning,0825.9,5.00,000.00,018.3,017.5,000.0,027.0,020.0,06.0,0000.0,0005.80,0000.72,0000.36
2024-02-28 05:31:00,SystemResetWarning,0825.9,5.00,000.00,018.3,017.6,000.0,027.1,020.1,06.1,0000.0,0006.68,0000.71,0000.36
2024-02-28 05:32:00,SystemResetWarning,0825.9,5.00,000.00,018.4,018.2,000.0,027.2,020.4,06.1,0000.0,0007.94,0000.74,0000.36
2024-02-28 05:33:00,SystemResetWarning,0826.0,5.00,000.00,018.6,018.9,000.0,027.2,020.9,05.9,0000.0,0007.61,0000.81,0000.36
2024-02-28 05:34:00,SystemResetWarning,0826.0,4.99,000.00,018.8,018.9,000.0,027.1,020.8,05.6,0000.0,0007.31,0000.82,0000.36
2024-02-28 05:35:00,SystemResetWarning,0826.1,4.99,000.00,018.7,018.7,000.0,027.1,020.7,05.6,0000.0,0007.04,0000.85,0000.37
2024-02-28 05:36:00,SystemResetWarning,0826.1,5.01,000.00,018.7,018.6,000.0,027.1,020.6,05.6,0000.0,0005.15,0000.88,0000.37
2024-02-28 05:37:00,SystemResetWarning,0826.0,5.00,000.00,018.7,018.4,000.0,027.1,020.4,05.6,0000.0,0005.16,0000.91,0000.37
2024-02-28 05:38:00,SystemResetWarning,0826.0,5.00,000.00,018.7,018.3,000.0,027.1,020.3,05.6,0000.0,0005.26,0000.91,0000.37
2024-02-28 05:39:00,SystemResetWarning,0826.0,5.00,000.00,018.6,018.1,000.0,027.0,020.3,05.6,0000.0,0005.35,0000.94,0000.37
2024-02-28 05:40:00,SystemResetWarning,0826.0,4.99,000.00,018.6,018.0,000.0,027.0,020.2,05.6,0000.0,0005.39,0000.97,0000.38
2024-02-28 05:41:00,SystemResetWarning,0826.0,4.99,000.00,018.6,018.0,000.0,027.0,020.2,05.6,0000.0,0005.31,0000.96,0000.39
2024-02-28 05:42:00,SystemResetWarning,0826.0,4.99,000.00,018.5,017.9,000.0,027.0,020.2,05.6,0000.0,0004.57,0000.98,0000.39
2024-02-28 05:43:00,SystemResetWarning,0826.0,5.00,000.00,018.5,017.8,000.0,027.0,020.2,05.6,0000.0,0003.15,0001.01,0000.39
2024-02-28 05:44:00,SystemResetWarning,0826.0,5.01,000.00,018.4,017.8,000.0,027.0,020.1,05.6,0000.0,0002.98,0001.03,0000.39
2024-02-28 05:45:00,SystemResetWarning,0826.1,5.00,000.00,018.4,017.7,000.0,027.0,020.0,05.6,0000.0,0003.05,0001.05,0000.39
2024-02-28 05:46:00,SystemResetWarning,0826.2,5.00,000.00,018.4,017.7,000.0,026.9,020.0,05.5,0000.0,0003.08,0001.04,0000.38
2024-02-28 05:47:00,SystemResetWarning,0826.3,5.00,000.00,018.3,017.7,000.0,026.9,020.0,05.6,0000.0,0003.12,0001.04,0000.38
2024-02-28 05:48:00,SystemResetWarning,0826.4,4.99,000.00,018.3,017.6,000.0,026.9,020.0,05.7,0000.0,0003.08,0001.04,0000.38
2024-02-28 05:49:00,SystemResetWarning,0826.4,5.00,000.00,018.3,017.6,000.0,026.9,020.0,05.9,0000.0,0003.00,0001.05,0000.37
2024-02-28 05:50:00,SystemResetWarning,0826.4,5.00,000.00,018.3,017.6,000.0,027.0,020.0,06.4,0000.0,0002.86,0001.03,0000.37
2024-02-28 05:51:00,SystemResetWarning,0826.4,5.01,000.00,018.4,018.0,000.0,027.1,020.3,06.3,0000.0,0002.79,0001.00,0000.36
2024-02-28 05:52:00,SystemResetWarning,0826.2,5.00,000.00,018.6,018.9,000.0,027.1,020.8,05.2,0000.0,0003.28,0001.00,0000.35
2024-02-28 05:53:00,SystemResetWarning,0826.2,4.99,000.00,018.8,019.4,000.0,027.2,021.1,04.8,0000.0,0002.98,0000.98,0000.33
2024-02-28 05:54:00,SystemResetWarning,0826.2,4.99,000.00,018.8,019.2,000.0,027.1,020.9,04.5,0000.0,0003.55,0000.94,0000.33
2024-02-28 05:55:00,SystemResetWarning,0826.2,5.02,000.00,018.8,019.0,000.0,027.1,020.7,04.5,0000.0,0003.27,0000.83,0000.33
2024-02-28 05:56:00,SystemResetWarning,0826.2,5.00,000.00,018.8,018.7,000.0,027.1,020.6,04.7,0000.0,0003.21,0000.81,0000.34
2024-02-28 05:57:00,SystemResetWarning,0826.3,4.99,000.00,018.8,018.5,000.0,027.1,020.4,04.7,0000.0,0003.27,0000.81,0000.34
2024-02-28 05:58:00,SystemResetWarning,0826.3,4.99,000.00,018.7,018.3,000.0,027.0,020.3,04.8,0000.0,0003.20,0000.80,0000.35
2024-02-28 05:59:00,SystemResetWarning,0825.9,5.00,000.00,018.7,018.2,000.0,027.0,020.2,04.6,0000.0,0003.40,0000.83,0000.36
